Terug naar catalogus

STARLINK-11378

ActiefCommunicatieVLEO
NORAD 62020·PAYLOAD·🇺🇸 United States

Gelanceerd Nov 18, 2024 vanaf Vandenberg Space Force Base

Loading…

Volgende Passages (komende 24 uur)

TLE

VersSource: CelesTrak SupGP

Epoch: Sep 15, 2026, 02:37 UTC

1 62020C 24213N   26258.10951389 -.00048744  00000+0 -40137-3 0  2585
2 62020  53.1571 187.1476 0001125  89.0834 153.2711 15.69742859    16

Volg STARLINK-11378 in realtime met AllMySat

Download on the App Store